Regional Weather Roundup
Issued by NWS

Home | Current Version | Previous Version | Text Only | Print | Product List | Glossary Off
Versions: 1 2 3 4 5 6 7 8 9 10 11 12 13 14 15 16 17 18 19 20 21 22 23 24 25 26 27 28 29 30 31 32 33 34 35 36 37 38 39 40 41 42 43 44 45 46 47 48 49 50

000
ASUS43 KLMK 030510
RWRKY
KENTUCKY REGIONAL WEATHER ROUNDUP
NATIONAL WEATHER SERVICE LOUISVILLE KY
100 AM EDT TUE MAY 03 2016

NOTE "FAIR" INDICATES FEW OR NO CLOUDS BELOW 12,000 FEET
WITH NO SIGNIFICANT WEATHER AND/OR OBSTRUCTIONS TO VISIBILITY.

KYZ001>023-026-027-061>063-070>075-030600-
WESTERN AND SOUTH CENTRAL KENTUCKY

CITY           SKY/WX    TMP DP  RH WIND       PRES   REMARKS
PADUCAH        CLOUDY    57  50  77 NW3       30.00F
HENDERSON      CLOUDY    57  46  67 NW6       29.98F
OWENSBORO      CLOUDY    57  51  80 NW7       29.98F
HOPKINSVILLE   CLOUDY    57  51  80 NW5       29.98
BOWLING GREEN  CLOUDY    58  51  78 NW6       29.97S
GLASGOW        LGT RAIN  56  56  97 NW3       29.96R
$$

KYZ024-025-028>034-038-045-046-053-030600-
NORTH CENTRAL KENTUCKY

CITY           SKY/WX    TMP DP  RH WIND       PRES   REMARKS
LOUISVILLE/SDF CLOUDY    58  48  69 NW7       29.94F
LOUISVILLE/LOU CLOUDY    58  49  72 W5        29.95F
FORT KNOX      CLOUDY    55  50  83 W5        29.94F
$$

KYZ035>037-039>044-047>052-055>060-089>105-030600-
NORTHEAST KENTUCKY

CITY           SKY/WX    TMP DP  RH WIND       PRES   REMARKS
LEXINGTON      CLOUDY    57  51  80 NW5       29.93F
COVINGTON      CLOUDY    55  52  89 N5        29.92F
FRANKFORT      NOT AVBL
$$

KYZ054-064>069-076>088-106>120-030600-
SOUTHEAST KENTUCKY

CITY           SKY/WX    TMP DP  RH WIND       PRES   REMARKS
JACKSON        CLOUDY    58  57  97 W3        29.92S FOG
LONDON         LGT RAIN  59  58  96 NW5       29.93S
SOMERSET       CLOUDY    57  57 100 CALM      29.94F
MIDDLESBORO    CLOUDY    59  59 100 CALM      29.93F
MONTICELLO     LGT RAIN  59  57  93 W5        29.95F
$$





USA.gov is the U.S. government's official web portal to all federal, state and local government web resources and services.